Weather History for Carbondale, IL

Change the Weather History Date:

Monday, August 12, 2013

  Actual Average Record
Temperature  
Mean Temperature 76 °F -  
Max Temperature 84 °F 85 °F 103 °F (1936)
Min Temperature 69 °F 61 °F 49 °F (1967)
Cooling Degree Days 12    
Growing Degree Days 26 (Base 50)    
Moisture  
Dew Point 72 °F    
Average Humidity 88    
Maximum Humidity 100    
Minimum Humidity 74    
Precipitation  
Precipitation 0.11 in - - ()
Sea Level Pressure  
Sea Level Pressure 29.99 in    
Wind  
Wind Speed 2 mph (West)    
Max Wind Speed 9 mph    
Max Gust Speed 17 mph    
Visibility 8 miles    
Events Rain , Thunderstorm    
Averages and records for this station are not official NWS values.
T = Trace of Precipitation, MM = Missing Value Source: NWS Daily Summary

Daily Weather History Graph

Daily Weather History Graph

Search for Another Location

Airport:

Trip Planner

Search our weather history database for the weather conditions in past years. The results will help you decide how hot, cold, wet, or windy it might be!

Date:

Astronomy

Aug. 12, 2013 Rise Set
Actual Time 6:10 AM CDT 7:53 PM CDT
Civil Twilight 5:41 AM CDT 8:21 PM CDT
Nautical Twilight 5:07 AM CDT 8:55 PM CDT
Astronomical Twilight 4:31 AM CDT 9:31 PM CDT
Moon 11:53 AM CDT (8/12) 10:54 PM CDT (8/12)
Length of Visible Light 14h 39m
Length of Day
13h 43m
Waxing Crescent, 31% of the Moon is Illuminated
Aug 12
Waxing Crescent
Aug 14
First Quarter
Aug 20
Full
Aug 28
Last Quarter
Sep 5
New

Hourly Weather History & Observations

Time (CDT) Temp. Heat Index Dew Point Humidity Pressure Visibility Wind Dir Wind Speed Gust Speed Precip Events Conditions
12:52 AM 72.0 °F - 70.0 °F 93% 30.07 in 7.0 mi Calm Calm - N/A   Overcast
1:52 AM 71.1 °F - 68.0 °F 90% 30.05 in 10.0 mi Calm Calm - N/A   Partly Cloudy
2:37 AM 71.6 °F - 68.0 °F 88% 30.06 in 10.0 mi Calm Calm - N/A Thunderstorm Scattered Clouds
2:52 AM 73.0 °F - 69.1 °F 87% 30.06 in 8.0 mi West 8.1 mph 17.3 mph 0.01 in Rain , Thunderstorm Thunderstorms and Rain
3:03 AM 71.6 °F - 69.8 °F 94% 30.06 in 4.0 mi West 4.6 mph - 0.04 in Rain Light Rain
3:25 AM 71.6 °F - 69.8 °F 94% 30.05 in 8.0 mi Calm Calm - 0.04 in Rain , Thunderstorm Light Rain
3:52 AM 71.1 °F - 69.1 °F 93% 30.04 in 8.0 mi Calm Calm - 0.04 in Rain , Thunderstorm Light Thunderstorms and Rain
4:03 AM 71.6 °F - 69.8 °F 94% 30.06 in 7.0 mi Calm Calm - 0.00 in   Mostly Cloudy
4:52 AM 70.0 °F - 68.0 °F 93% 30.01 in 7.0 mi Calm Calm - 0.00 in   Clear
5:21 AM 69.8 °F - 68.0 °F 94% 30.03 in 4.0 mi ESE 4.6 mph - N/A   Mostly Cloudy
5:52 AM 70.0 °F - 68.0 °F 93% 30.03 in 5.0 mi Calm Calm - N/A   Overcast
6:00 AM 69.8 °F - 69.8 °F 100% 30.04 in 5.0 mi Calm Calm - N/A   Overcast
6:52 AM 70.0 °F - 69.1 °F 97% 30.02 in 5.0 mi Calm Calm - N/A   Partly Cloudy
7:52 AM 73.0 °F - 70.0 °F 90% 30.01 in 8.0 mi SSE 3.5 mph - N/A   Clear
8:13 AM 75.2 °F - 71.6 °F 89% 30.02 in 7.0 mi Calm Calm - N/A   Scattered Clouds
8:22 AM 75.2 °F - 71.6 °F 89% 30.02 in 7.0 mi SSW 3.5 mph - N/A   Mostly Cloudy
8:52 AM 75.9 °F - 73.0 °F 91% 30.01 in 6.0 mi SW 3.5 mph - N/A   Overcast
9:06 AM 77.0 °F - 73.4 °F 89% 30.02 in 6.0 mi WSW 3.5 mph - N/A   Mostly Cloudy
9:52 AM 79.0 °F - 73.9 °F 84% 30.01 in 10.0 mi SSW 3.5 mph - N/A   Mostly Cloudy
10:16 AM 80.6 °F 86.2 °F 75.2 °F 84% 30.02 in 10.0 mi WSW 5.8 mph - N/A   Mostly Cloudy
10:23 AM 80.6 °F 85.4 °F 73.4 °F 79% 30.02 in 10.0 mi SW 5.8 mph - N/A   Scattered Clouds
10:52 AM 80.1 °F 85.1 °F 75.0 °F 85% 30.01 in 10.0 mi WSW 6.9 mph - N/A   Mostly Cloudy
11:52 AM 82.9 °F 90.2 °F 75.0 °F 77% 29.99 in 10.0 mi SW 8.1 mph - N/A   Mostly Cloudy
12:38 PM 82.4 °F 88.2 °F 73.4 °F 74% 29.99 in 10.0 mi West 4.6 mph - N/A   Mostly Cloudy
12:52 PM 82.9 °F 90.2 °F 75.0 °F 77% 29.97 in 10.0 mi West 6.9 mph - N/A   Mostly Cloudy
1:52 PM 84.0 °F 92.6 °F 75.9 °F 76% 29.95 in 10.0 mi WNW 4.6 mph - N/A   Mostly Cloudy
2:52 PM 82.9 °F 90.2 °F 75.0 °F 77% 29.93 in 10.0 mi WNW 3.5 mph - N/A   Overcast
3:11 PM 80.6 °F 86.2 °F 75.2 °F 84% 29.94 in 10.0 mi NW 4.6 mph - N/A Thunderstorm Thunderstorm
3:52 PM 79.0 °F - 75.9 °F 90% 29.93 in 4.0 mi NW 3.5 mph - 0.03 in Rain , Thunderstorm Light Thunderstorms and Rain
4:05 PM 78.8 °F - 75.2 °F 89% 29.94 in 4.0 mi NW 3.5 mph - 0.02 in Rain Light Rain
4:52 PM 78.1 °F - 72.0 °F 81% 29.93 in 8.0 mi NNE 9.2 mph - 0.03 in   Scattered Clouds
5:52 PM 78.1 °F - 72.0 °F 81% 29.91 in 10.0 mi Calm Calm - N/A   Clear
6:52 PM 77.0 °F - 71.1 °F 82% 29.91 in 10.0 mi Calm Calm - N/A   Mostly Cloudy
7:52 PM 75.9 °F - 72.0 °F 87% 29.91 in 10.0 mi Calm Calm - N/A   Overcast
8:52 PM 73.0 °F - 71.1 °F 93% 29.93 in 8.0 mi Calm Calm - N/A   Partly Cloudy
9:52 PM 73.0 °F - 71.1 °F 93% 29.96 in 8.0 mi NW 3.5 mph - N/A   Clear
10:52 PM 72.0 °F - 70.0 °F 93% 29.95 in 8.0 mi Calm Calm - N/A   Clear
11:52 PM 72.0 °F - 71.1 °F 97% 29.94 in 7.0 mi WNW 4.6 mph - N/A   Scattered Clouds